Location: Powder Track
(41.8531°N, 72.3584°W)
Time: 09:21:23
(UTC+00:00)

Transit 4A - Pass Details

Date: 05 August 2021
Orbit: 871 x 974 km, 66.8° (Epoch: 20 September)

Event Time Altitude Azimuth Distance (km) Brightness Sun altitude
Rises 04:15:37 0° 223° (SW) 3,490 - -30.5°
Reaches altitude 10° 04:18:12 10° 228° (SW) 2,542 - -30.6°
Exits shadow 04:23:27 51° 288° (WNW) 1,089 8.3 -30.8°
Maximum altitude 04:23:55 53° 305° (NW) 1,072 8.3 -30.8°
Drops below altitude 10° 04:29:36 10° 22° (NNE) 2,525 10.9 -30.9°
Sets 04:32:09 0° 27° (NNE) 3,466 11.7 -31.0°
